Starlink 30436

operational
NORAD ID: 57880 Int'l Des: 2023-144 Owner: SPXS Country: US Constellation: starlink
LEOCIRCULAR

Über Starlink 30436

Beschreibung wird geladen...

Live-Position

3D-Globus wird geladen...

Nächste Überflüge

Höhenverlauf

Altitude vs Time

uPlot chart will show altitude changes over time

Zweizeiliger Elementsatz

1 57880U 23144S 25306.12855124 .00000400 00000-0 44674-4 0 9999
2 57880 43.0050 260.4796 0001119 265.1992 94.8722 15.02531897118421
Epoch: 2. Nov. 2025 • Age: 15 hours

Aktueller Status

Höhe 569.8 km
Geschwindigkeit 7.58 km/s
Subsatellitenpunkt -38.54°S, 174.85°E
Startdatum 16. Sept. 2023
Alter 2.1 years
Typ internet

Technische Details

Klassifizierung Payload
Masse 730.00 kg
Trockenmasse 700.00 kg
Gesamtmasse 730.00 kg
Länge 0.30 m
Durchmesser 4.10 m
Spannweite 29.00 m
Form Box + pan
Hersteller SPXS
Bus-Typ Starlink V2M
Phasenstatus In Orbit
Besitzer/Staat SPXS/US

Große Konstellationen

Loading constellations...